DECAYED

OBJECT G, 61443 (Decayed)

Orbit data source: Space-Track

You're viewing an Uncataloged Satellite

Recently launched and/or uncataloged satellites may have evolving metadata. Metadata may include but not limited to: Owner, Maufacturer, Bus, Motor, and Mission.

OBJECT G, 61443 was a satellite owned by CASC (CN) in LEO that was launched on Tue, 24 Sep 2024 UTC launched from the Jiuquan Satellite Launch Center, China (JSC). Unknown objects in Earth's orbit typically refer to objects detected orbiting the Earth but have not yet been identified or cataloged. These objects could be anything from previously untracked satellites, spent rocket stages, debris from satellite collisions, or even natural meteoroids temporarily captured by Earth's gravity. This object's orbit decayed before it could be identified.

Not visible in the next 10 days
Identifier
61443, 2024-174G
Orbit
Decayed
Country
Flag of CNCN / PRC
Related business
Manufacturer
CAS
Mission
Decayed spacecraft
Bus & Motor
Unknown
Mass
Unknown
Launch date (UTC)
2024-09-24 (1 year ago)
Launch vehicle
Unknown
Launch site
Jiuquan Satellite Launch Center, China (JSC)
Object type
Unknown
Shape & HBR
Unknown
Radar Cross Section
Medium (>0.1 m² and <1 m²)

Expand to show TLE details & history
Last TLE update: 10 months ago

TLE from 10 months ago
0 OBJECT G
1 61443U 24174G   24311.05781089  .11536702  23229-5  77814-3 0  9993
2 61443  97.4009 319.3428 0032307 235.3272 124.4980 16.37015076  6390
Epoch: 2024-11-06T01:23Z
TLE epoch observation values (Epoch: 2024-11-06T01:23:14.86Z)
Latitude
-0.00009°
Longitude
-107.2294°
Altitude
189.04 km
Speed
7.786 km/s
True Right ascension
21h 17m 22s
True Declination
0° 00' 00"
Sunlit
Object was in daylight at epoch
Visualization orbit readout
Latitude
Unknown
Longitude
Unknown
Altitude
Unknown
Speed
Unknown
Apparent Right ascension
Unknown
Apparent Declination
Unknown
Sunlit
N/A
Visualization observer readout
Local Sidereal Time
20:19:46
Azimuth
Unknown
Elevation
Unknown
Doppler factor
Unknown
Orbital elements
Apogee altitude
191.723 km
Perigee altitude
149.409 km
Semi-major axis
6,548.703 km
Eccentricity
0.00323
Inclination
97.4009°
RAAN
319.3428°
Arg. of periapsis
235.3272°
True anomaly
124.80241°
Mean anomaly
124.498°
Eccentric anomaly
124.65027°
Mean motion
4.09553 °/min
Orbital period
87.9 mins
BSTAR
0.00077814
Loading maneuver chart data...
Computing Atmospheric mass density...
Loading historical data...
Loading historical data...
Loading historical data...
Loading historical data...
Loading historical data...
Loading historical data...
Loading historical data...

Documentation

Showing up to 5 results
|